Weather History for Lincolnton, NC

Change the Weather History Date:

Thursday, March 27, 2014

  Actual Average (KCLT) Record (KCLT)
Temperature  
Mean Temperature 42 °F 54 °F  
Max Temperature 61 °F 67 °F 85 °F (1950)
Min Temperature 24 °F 42 °F 19 °F (1955)
Degree Days  
Heating Degree Days 22 11  
Month to date heating degree days 392  
Since 1 July heating degree days 3091  
Cooling Degree Days 0 0  
Month to date cooling degree days 0  
Year to date cooling degree days 0  
Moisture  
Dew Point 20 °F    
Average Humidity 50    
Maximum Humidity 88    
Minimum Humidity 18    
Precipitation  
Precipitation 0.00 in 0.12 in 1.22 in (1891)
Month to date precipitation 3.51  
Year to date precipitation 10.24  
Snow  
Snow 0.00 in 0.10 in 0.40 in (1947)
Month to date snowfall 0.6  
Since 1 July snowfall 4.3  
Snow Depth -    
Sea Level Pressure  
Sea Level Pressure 30.32 in    
Wind  
Wind Speed 2 mph (SSW)    
Max Wind Speed 12 mph    
Max Gust Speed 18 mph    
Visibility 10 miles    
Events      
T = Trace of Precipitation, MM = Missing Value Source: NWS Daily Summary

Daily Weather History Graph

Daily Weather History Graph

Search for Another Location

Airport:

Trip Planner

Search our weather history database for the weather conditions in past years. The results will help you decide how hot, cold, wet, or windy it might be!

Date:

Astronomy

Mar. 27, 2014 Rise Set
Actual Time 7:18 AM EDT 7:42 PM EDT
Civil Twilight 6:52 AM EDT 8:07 PM EDT
Nautical Twilight 6:22 AM EDT 8:37 PM EDT
Astronomical Twilight 5:52 AM EDT 9:08 PM EDT
Moon 5:01 AM EDT (3/27) 4:34 PM EDT (3/27)
Length of Visible Light 13h 14m
Length of Day
12h 23m
Waning Crescent, 13% of the Moon is Illuminated
Mar 27
Waning Crescent
Mar 30
New
Apr 7
First Quarter
Apr 15
Full
Apr 22
Last Quarter

Hourly Weather History & Observations

Time (EDT) Temp. Dew Point Humidity Pressure Visibility Wind Dir Wind Speed Gust Speed Precip Events Conditions
12:15 AM 28.2 °F 21.2 °F 75% 30.30 in 10.0 mi Calm Calm - N/A   Clear
12:35 AM 28.6 °F 21.7 °F 76% 30.31 in 10.0 mi Calm Calm - N/A   Clear
12:55 AM 28.0 °F 20.8 °F 74% 30.31 in 10.0 mi Calm Calm - N/A   Clear
1:15 AM 28.2 °F 22.6 °F 80% 30.31 in 10.0 mi Calm Calm - N/A   Clear
1:35 AM 27.3 °F 20.8 °F 77% 30.31 in 10.0 mi Calm Calm - N/A   Clear
2:15 AM 27.1 °F 21.0 °F 78% 30.31 in 10.0 mi Calm Calm - N/A   Clear
2:35 AM 26.8 °F 21.6 °F 81% 30.31 in 10.0 mi Calm Calm - N/A   Clear
2:55 AM 26.6 °F 20.1 °F 77% 30.32 in 10.0 mi Calm Calm - N/A   Clear
3:15 AM 26.1 °F 20.1 °F 78% 30.32 in 10.0 mi Calm Calm - N/A   Clear
3:35 AM 25.5 °F 19.6 °F 78% 30.33 in 10.0 mi Calm Calm - N/A   Clear
3:55 AM 24.6 °F 19.9 °F 82% 30.33 in 10.0 mi Calm Calm - N/A   Clear
4:15 AM 25.0 °F 20.5 °F 83% 30.33 in 10.0 mi Calm Calm - N/A   Clear
4:35 AM 24.3 °F 19.9 °F 84% 30.33 in 10.0 mi Calm Calm - N/A   Clear
4:55 AM 24.8 °F 20.3 °F 83% 30.33 in 10.0 mi Calm Calm - N/A   Clear
5:15 AM 24.4 °F 20.7 °F 86% 30.33 in 10.0 mi Calm Calm - N/A   Clear
5:35 AM 24.4 °F 20.3 °F 84% 30.34 in 10.0 mi Calm Calm - N/A   Clear
5:55 AM 24.4 °F 20.8 °F 86% 30.33 in 10.0 mi Calm Calm - N/A   Clear
6:15 AM 24.3 °F 21.2 °F 88% 30.34 in 10.0 mi Calm Calm - N/A   Clear
6:35 AM 24.4 °F 20.7 °F 86% 30.34 in 10.0 mi Calm Calm - N/A   Clear
6:55 AM 24.8 °F 20.7 °F 84% 30.34 in 10.0 mi Calm Calm - N/A   Clear
7:15 AM 24.6 °F 20.3 °F 84% 30.36 in 10.0 mi Calm Calm - N/A   Clear
7:35 AM 24.6 °F 20.1 °F 83% 30.37 in 10.0 mi Calm Calm - N/A   Clear
7:55 AM 25.2 °F 20.5 °F 82% 30.38 in 10.0 mi Calm Calm - N/A   Clear
8:15 AM 25.5 °F 21.4 °F 84% 30.39 in 10.0 mi Calm Calm - N/A   Clear
8:35 AM 27.9 °F 22.8 °F 81% 30.39 in 10.0 mi Calm Calm - N/A   Clear
8:55 AM 31.3 °F 23.4 °F 72% 30.39 in 10.0 mi Calm Calm - N/A   Clear
9:15 AM 33.3 °F 24.1 °F 69% 30.40 in 10.0 mi Calm Calm - N/A   Clear
9:35 AM 36.9 °F 21.0 °F 53% 30.40 in 10.0 mi Calm Calm - N/A   Clear
9:55 AM 37.2 °F 18.9 °F 48% 30.41 in 10.0 mi Calm Calm - N/A   Clear
10:15 AM 39.9 °F 19.2 °F 43% 30.41 in 10.0 mi Calm Calm - N/A   Clear
10:35 AM 42.1 °F 18.1 °F 38% 30.41 in 10.0 mi Calm Calm - N/A   Clear
10:55 AM 45.0 °F 19.6 °F 36% 30.41 in 10.0 mi Calm Calm - N/A   Clear
11:15 AM 48.2 °F 17.8 °F 30% 30.41 in 10.0 mi South 6.9 mph - N/A   Clear
11:35 AM 48.0 °F 17.2 °F 29% 30.42 in 10.0 mi SW 9.2 mph - N/A   Clear
11:55 AM 49.8 °F 18.1 °F 29% 30.42 in 10.0 mi WSW 8.1 mph - N/A   Clear
12:15 PM 51.6 °F 17.2 °F 26% 30.41 in 10.0 mi SW 8.1 mph - N/A   Clear
12:35 PM 52.3 °F 17.2 °F 25% 30.40 in 10.0 mi South 9.2 mph - N/A   Clear
12:55 PM 54.7 °F 18.3 °F 24% 30.39 in 10.0 mi SSW 10.4 mph - N/A   Clear
1:15 PM 54.9 °F 18.0 °F 24% 30.38 in 10.0 mi SSE 9.2 mph - N/A   Clear
1:35 PM 54.7 °F 16.2 °F 22% 30.37 in 10.0 mi SSW 8.1 mph - N/A   Clear
1:55 PM 57.6 °F 16.9 °F 20% 30.36 in 10.0 mi South 9.2 mph - N/A   Clear
2:15 PM 57.0 °F 15.8 °F 20% 30.35 in 10.0 mi SSW 8.1 mph - N/A   Clear
2:35 PM 56.8 °F 16.7 °F 21% 30.34 in 10.0 mi South 9.2 mph - N/A   Clear
2:55 PM 58.5 °F 17.8 °F 21% 30.32 in 10.0 mi SSW 11.5 mph - N/A   Clear
3:15 PM 59.5 °F 18.1 °F 20% 30.31 in 10.0 mi South 9.2 mph - N/A   Clear
3:35 PM 58.8 °F 18.0 °F 20% 30.30 in 10.0 mi South 4.6 mph - N/A   Clear
3:55 PM 60.1 °F 18.7 °F 20% 30.29 in 10.0 mi South 8.1 mph 17.3 mph N/A   Clear
4:15 PM 59.9 °F 15.8 °F 18% 30.29 in 10.0 mi SW 9.2 mph - N/A   Clear
4:35 PM 61.0 °F 17.8 °F 19% 30.28 in 10.0 mi SSW 4.6 mph - N/A   Clear
4:55 PM 61.0 °F 17.4 °F 18% 30.28 in 10.0 mi WSW 8.1 mph - N/A   Clear
5:15 PM 61.0 °F 17.1 °F 18% 30.28 in 10.0 mi SSW 9.2 mph 18.4 mph N/A   Clear
5:35 PM 60.8 °F 16.3 °F 18% 30.27 in 10.0 mi SW 8.1 mph 17.3 mph N/A   Clear
5:55 PM 61.2 °F 17.6 °F 18% 30.26 in 10.0 mi South 8.1 mph - N/A   Clear
6:15 PM 60.4 °F 17.1 °F 19% 30.26 in 10.0 mi South 8.1 mph 18.4 mph N/A   Clear
6:35 PM 60.4 °F 18.3 °F 20% 30.25 in 10.0 mi SSW 8.1 mph - N/A   Clear
6:55 PM 59.4 °F 19.0 °F 21% 30.24 in 10.0 mi SW 8.1 mph - N/A   Clear
7:15 PM 58.5 °F 19.8 °F 22% 30.23 in 10.0 mi South 8.1 mph - N/A   Clear
7:35 PM 57.2 °F 19.9 °F 24% 30.24 in 10.0 mi SSW 5.8 mph - N/A   Clear
8:15 PM 55.0 °F 18.9 °F 24% 30.24 in 10.0 mi Calm Calm - N/A   Clear
8:35 PM 54.7 °F 19.0 °F 25% 30.25 in 10.0 mi Calm Calm - N/A   Clear
8:55 PM 49.1 °F 22.3 °F 35% 30.26 in 10.0 mi WSW 3.5 mph - N/A   Clear
9:15 PM 46.6 °F 22.3 °F 38% 30.26 in 10.0 mi Calm Calm - N/A   Clear
9:35 PM 45.7 °F 23.5 °F 42% 30.26 in 10.0 mi Calm Calm - N/A   Clear
9:55 PM 43.9 °F 25.3 °F 48% 30.26 in 10.0 mi Calm Calm - N/A   Clear
10:15 PM 42.1 °F 25.9 °F 53% 30.26 in 10.0 mi Calm Calm - N/A   Clear
10:35 PM 42.3 °F 27.1 °F 55% 30.26 in 10.0 mi Calm Calm - N/A   Clear
10:55 PM 41.0 °F 25.9 °F 55% 30.25 in 10.0 mi Calm Calm - N/A   Clear
11:15 PM 41.4 °F 25.3 °F 53% 30.25 in 10.0 mi Calm Calm - N/A   Clear
11:35 PM 40.8 °F 29.1 °F 63% 30.25 in 10.0 mi Calm Calm - N/A   Clear
11:55 PM 40.3 °F 29.1 °F 64% 30.25 in 10.0 mi Calm Calm - N/A   Clear